STARLINK-36310

Last updated on Sun Apr 12 2026 00:02:07 GMT+0000 (Coordinated Universal Time)

1 68244U 26054N 26101.43007897 .00263411 00000+0 12937-2 0 9999 2 68244 53.1574 148.4794 0001163 28.5486 331.5600 15.80942230 3951
UTC large
Height (km)
Speed (km/s)
/
Latitude / Longitude
Inclination (degrees)
Orbital Period (minutes)
Azimuth
Elevation
Range (km)
Doppler Factor

Next 0 passes for location: London (51.5072 / 0.1276)

Sorry there are no passes over London.
STARLINK-36310